DJ8HS-1 Weather Reports


Display with metric or nautical units.
time (UTC)temp
F
wind
direction
speed
MPH
gust
MPH
rain 1hr
in
rain 24hr
in
rain mn
in
humidity
%
barometer
mb
20260506234311 51 208 0.0 5.0 0.00 0.00 0.00 84
20260506233811 51 323 1.0 4.0 0.00 0.00 0.00 84
20260506233311 51 4 0.0 3.0 0.00 0.00 0.00 84
20260506232811 51 247 3.0 4.0 0.00 0.00 0.00 84
20260506232310 51 250 1.0 6.0 0.00 0.00 0.00 84
20260506231810 51 345 0.0 4.0 0.00 0.00 0.00 84
20260506231310 51 275 0.0 6.0 0.00 0.00 0.00 84
20260506230809 51 293 0.0 3.0 0.00 0.00 0.00 84
20260506230309 51 244 0.0 1.0 0.00 0.00 0.00 84
20260506225809 52 244 0.0 2.0 0.00 0.00 0.00 84
20260506225308 52 320 0.0 3.0 0.00 0.00 0.00 84
20260506224808 51 255 0.0 1.0 0.00 0.00 0.00 84
20260506224308 51 5 0.0 4.0 0.00 0.00 0.00 84
20260506223808 51 232 0.0 4.0 0.00 0.00 0.00 83
20260506223307 52 220 0.0 4.0 0.00 0.00 0.00 83
20260506222807 51 303 0.0 2.0 0.00 0.00 0.00 84
20260506222307 52 264 0.0 2.0 0.00 0.00 0.00 83
20260506221806 52 312 0.0 3.0 0.00 0.00 0.00 83
20260506221306 52 347 0.0 0.0 0.00 0.00 0.00 83
20260506220806 52 347 0.0 0.0 0.00 0.00 0.00 83
20260506220305 52 347 0.0 0.0 0.00 0.00 0.00 83
20260506215805 52 347 0.0 0.0 0.00 0.00 0.00 83
20260506215306 52 347 0.0 0.0 0.00 0.00 0.00 83
20260506214805 52 347 0.0 0.0 0.00 0.00 0.00 83
20260506214304 52 347 0.0 0.0 0.00 0.00 0.00 83
20260506213804 52 347 0.0 0.0 0.00 0.00 0.00 83
20260506213304 52 347 0.0 2.0 0.00 0.00 0.00 83
20260506212803 52 319 0.0 0.0 0.00 0.00 0.00 83
20260506212306 52 319 0.0 4.0 0.00 0.00 0.00 83
20260506211803 52 347 0.0 5.0 0.00 0.00 0.00 83
20260506211303 52 49 2.0 5.0 0.00 0.00 0.00 83
20260506210802 52 351 0.0 4.0 0.00 0.00 0.00 83
20260506210302 52 267 0.0 1.0 0.00 0.00 0.00 83
20260506205802 52 265 0.0 0.0 0.00 0.00 0.00 83
20260506205305 52 265 0.0 3.0 0.00 0.00 0.00 83
20260506204801 52 278 0.0 0.0 0.00 0.00 0.00 82
20260506204301 52 278 0.0 2.0 0.00 0.00 0.00 82
20260506203801 52 1 1.0 3.0 0.00 0.00 0.00 82
20260506203300 53 326 0.0 3.0 0.00 0.00 0.00 82
20260506202800 52 267 1.0 4.0 0.00 0.00 0.00 82
20260506202300 53 78 0.0 3.0 0.00 0.00 0.00 82
20260506201759 53 358 0.0 4.0 0.00 0.00 0.00 82
20260506201259 53 37 0.0 6.0 0.00 0.00 0.00 82
20260506200759 53 350 0.0 4.0 0.00 0.00 0.00 82
20260506200258 53 316 0.0 6.0 0.00 0.00 0.00 82
20260506195758 53 33 0.0 4.0 0.00 0.00 0.00 82
20260506195258 53 345 1.0 7.0 0.00 0.00 0.00 82
20260506194758 53 262 5.0 8.0 0.00 0.00 0.00 82
20260506194257 53 4 0.0 3.0 0.00 0.00 0.00 82
20260506193757 53 345 0.0 4.0 0.00 0.00 0.00 82
20260506193257 53 316 2.0 6.0 0.00 0.00 0.00 82
20260506192756 53 351 1.0 6.0 0.00 0.00 0.00 81
20260506192256 54 251 0.0 7.0 0.00 0.00 0.00 81
20260506191756 54 0 2.0 5.0 0.00 0.00 0.00 81
20260506191255 54 223 0.0 0.0 0.00 0.00 0.00 81
20260506190755 54 223 0.0 5.0 0.00 0.00 0.00 82
20260506190255 54 264 0.0 7.0 0.00 0.00 0.00 81
20260506185755 54 331 0.0 4.0 0.00 0.00 0.00 81
20260506185254 55 270 3.0 3.0 0.00 0.00 0.00 81
20260506184754 55 253 0.0 2.0 0.00 0.00 0.00 80
20260506184254 55 258 0.0 5.0 0.00 0.00 0.00 80
20260506183753 55 198 0.0 6.0 0.00 0.00 0.00 80
20260506183253 55 295 0.0 2.0 0.00 0.00 0.00 79
20260506182753 56 18 0.0 3.0 0.00 0.00 0.00 79
20260506182253 55 14 2.0 4.0 0.00 0.00 0.00 79
20260506181752 56 341 1.0 5.0 0.00 0.00 0.00 79
20260506181252 56 257 0.0 6.0 0.00 0.00 0.00 79
20260506180752 56 16 1.0 4.0 0.00 0.00 0.00 79
20260506180251 56 16 1.0 2.0 0.00 0.00 0.00 80
20260506175751 56 340 0.0 5.0 0.00 0.00 0.00 80
20260506175251 56 333 0.0 5.0 0.00 0.00 0.00 81
20260506174751 56 358 3.0 4.0 0.00 0.00 0.00 81
20260506174250 56 265 0.0 6.0 0.00 0.00 0.00 81
20260506173750 57 261 1.0 6.0 0.00 0.00 0.00 82
20260506173250 57 312 0.0 4.0 0.00 0.00 0.00 82
20260506172749 56 293 0.0 6.0 0.00 0.00 0.00 81
20260506172249 56 357 3.0 6.0 0.00 0.00 0.00 82
20260506171749 56 237 0.0 0.0 0.00 0.00 0.00 83
20260506171248 56 237 0.0 0.0 0.00 0.00 0.00 83
20260506170748 56 237 0.0 3.0 0.00 0.00 0.00 83
20260506170248 56 292 2.0 4.0 0.00 0.00 0.00 83
20260506165748 56 285 1.0 4.0 0.00 0.00 0.00 83
20260506165247 56 341 1.0 8.0 0.00 0.00 0.00 83
20260506164747 56 322 0.0 7.0 0.00 0.00 0.00 83
20260506164247 56 336 6.0 9.0 0.00 0.00 0.00 83
20260506163746 57 347 0.0 7.0 0.00 0.00 0.00 82
20260506163246 57 1 7.0 9.0 0.00 0.00 0.00 82
20260506162746 57 258 0.0 2.0 0.00 0.00 0.00 83
20260506162245 57 208 0.0 0.0 0.00 0.00 0.00 82
20260506161745 58 208 0.0 4.0 0.00 0.00 0.00 82
20260506161245 58 296 0.0 4.0 0.00 0.00 0.00 82
20260506160745 58 350 4.0 4.0 0.00 0.00 0.00 82
20260506160244 58 317 0.0 5.0 0.00 0.00 0.00 82
20260506155744 58 215 0.0 5.0 0.00 0.00 0.00 81
20260506155244 58 344 0.0 5.0 0.00 0.00 0.00 82
20260506154743 59 352 2.0 3.0 0.00 0.00 0.00 83
20260506154243 58 281 0.0 5.0 0.00 0.00 0.00 82
20260506153743 59 70 0.0 5.0 0.00 0.00 0.00 81
20260506153243 59 329 2.0 5.0 0.00 0.00 0.00 81
20260506152742 59 295 1.0 8.0 0.00 0.00 0.00 81
20260506152242 60 334 2.0 5.0 0.00 0.00 0.00 82
20260506151742 60 300 0.0 4.0 0.00 0.00 0.00 83
20260506151241 60 275 0.0 3.0 0.00 0.00 0.00 82
20260506150741 60 319 0.0 1.0 0.00 0.00 0.00 82
20260506150241 60 331 0.0 2.0 0.00 0.00 0.00 81
20260506145741 60 305 0.0 1.0 0.00 0.00 0.00 81
20260506145240 60 8 0.0 0.0 0.00 0.00 0.00 82
20260506144740 60 8 0.0 0.0 0.00 0.00 0.00 82
20260506144240 60 8 0.0 2.0 0.00 0.00 0.00 82
20260506143739 60 170 0.0 3.0 0.00 0.00 0.00 81
20260506143239 60 244 0.0 2.0 0.00 0.00 0.00 80
20260506142739 60 28 0.0 3.0 0.00 0.00 0.00 80
20260506142238 60 260 2.0 2.0 0.00 0.00 0.00 80
20260506141738 60 246 0.0 12.0 0.00 0.00 0.00 79
20260506141238 61 243 4.0 11.0 0.00 0.00 0.00 76
20260506140738 61 223 6.0 7.0 0.00 0.00 0.00 76
20260506140237 62 267 1.0 10.0 0.00 0.00 0.00 75
20260506135737 61 189 0.0 5.0 0.00 0.00 0.00 76
20260506135237 61 9 0.0 9.0 0.00 0.00 0.00 75
20260506134736 61 272 4.0 5.0 0.00 0.00 0.00 76
20260506134236 61 262 0.0 6.0 0.00 0.00 0.00 76
20260506133736 61 253 0.0 5.0 0.00 0.00 0.00 76
20260506133235 62 244 3.0 7.0 0.00 0.00 0.00 75
20260506132735 62 203 0.0 6.0 0.00 0.00 0.00 74
20260506132235 63 192 1.0 4.0 0.00 0.00 0.00 68
20260506131735 63 305 0.0 4.0 0.00 0.00 0.00 66
20260506131234 63 355 2.0 5.0 0.00 0.00 0.00 66
20260506130734 63 23 0.0 4.0 0.00 0.00 0.00 66
20260506130234 63 74 0.0 1.0 0.00 0.00 0.00 67
20260506125733 62 15 0.0 3.0 0.00 0.00 0.00 67
20260506125233 62 340 0.0 5.0 0.00 0.00 0.00 67
20260506124733 63 357 2.0 6.0 0.00 0.00 0.00 67
20260506124233 62 350 1.0 7.0 0.00 0.00 0.00 65
20260506123732 63 291 6.0 7.0 0.00 0.00 0.00 63
20260506123232 63 28 2.0 8.0 0.00 0.00 0.00 61
20260506122732 64 281 2.0 7.0 0.00 0.00 0.00 61
20260506122231 64 188 1.0 8.0 0.00 0.00 0.00 60
20260506121731 64 284 3.0 7.0 0.00 0.00 0.00 60
20260506121231 64 258 5.0 9.0 0.00 0.00 0.00 60
20260506120730 64 239 4.0 8.0 0.00 0.00 0.00 60
20260506120230 64 307 1.0 10.0 0.00 0.00 0.00 58
20260506115730 64 127 1.0 8.0 0.00 0.00 0.00 58
20260506115230 64 172 0.0 9.0 0.00 0.00 0.00 59
20260506114729 64 264 3.0 8.0 0.00 0.00 0.00 59
20260506114229 64 195 0.0 6.0 0.00 0.00 0.00 58
20260506113729 65 299 1.0 6.0 0.00 0.00 0.00 58
20260506113228 64 284 4.0 9.0 0.00 0.00 0.00 60
20260506112728 64 251 2.0 5.0 0.00 0.00 0.00 61
20260506112228 64 257 0.0 5.0 0.00 0.00 0.00 62
20260506111728 64 251 5.0 7.0 0.00 0.00 0.00 61
20260506111227 64 175 0.0 4.0 0.00 0.00 0.00 61
20260506110727 64 254 1.0 7.0 0.00 0.00 0.00 61
20260506110227 64 262 2.0 6.0 0.00 0.00 0.00 62
20260506105726 63 237 5.0 5.0 0.00 0.00 0.00 61
20260506105226 64 236 3.0 5.0 0.00 0.00 0.00 62
20260506104726 63 232 1.0 8.0 0.00 0.00 0.00 62
20260506104225 63 198 0.0 9.0 0.00 0.00 0.00 65
20260506103725 62 163 1.0 9.0 0.00 0.00 0.00 65
20260506103225 62 284 4.0 6.0 0.00 0.00 0.00 65
20260506102725 62 316 2.0 7.0 0.00 0.00 0.00 66
20260506102224 62 310 3.0 4.0 0.00 0.00 0.00 66
20260506101724 62 265 1.0 7.0 0.00 0.00 0.00 65
20260506101224 62 234 5.0 8.0 0.00 0.00 0.00 66
20260506100723 61 258 3.0 6.0 0.00 0.00 0.00 68
20260506100223 61 289 5.0 8.0 0.00 0.00 0.00 69
20260506095723 61 271 3.0 5.0 0.00 0.00 0.00 68
20260506095222 61 261 2.0 7.0 0.00 0.00 0.00 67
20260506094722 61 278 6.0 9.0 0.00 0.00 0.00 66
20260506094222 62 282 3.0 7.0 0.00 0.00 0.00 66
20260506093722 62 215 3.0 6.0 0.00 0.00 0.00 67
20260506093221 61 296 1.0 7.0 0.00 0.00 0.00 68
20260506092721 61 246 5.0 8.0 0.00 0.00 0.00 69
20260506092221 60 233 2.0 5.0 0.00 0.00 0.00 70
20260506091720 60 215 1.0 9.0 0.00 0.00 0.00 70
20260506091220 60 240 4.0 6.0 0.00 0.00 0.00 69
20260506090720 60 233 4.0 8.0 0.00 0.00 0.00 70
20260506090220 60 281 7.0 7.0 0.00 0.00 0.00 69
20260506085719 60 233 2.0 6.0 0.00 0.00 0.00 69
20260506085219 61 317 0.0 4.0 0.00 0.00 0.00 70
20260506084719 61 244 2.0 5.0 0.00 0.00 0.00 69
20260506084218 61 195 0.0 8.0 0.00 0.00 0.00 69
20260506083718 61 279 5.0 5.0 0.00 0.00 0.00 70
20260506083218 61 223 1.0 5.0 0.00 0.00 0.00 70
20260506082717 61 241 0.0 6.0 0.00 0.00 0.00 70
20260506082217 61 253 4.0 7.0 0.00 0.00 0.00 70
20260506081717 61 227 0.0 6.0 0.00 0.00 0.00 71
20260506081217 61 277 4.0 6.0 0.00 0.00 0.00 72
20260506080716 61 244 2.0 9.0 0.00 0.00 0.00 72
20260506080216 60 241 2.0 7.0 0.00 0.00 0.00 71
20260506073214 60 248 2.0 3.0 0.00 0.00 0.00 79
20260506072714 60 216 0.0 1.0 0.00 0.00 0.00 80
20260506072214 59 278 0.0 0.0 0.00 0.00 0.00 82
20260506071713 59 278 0.0 3.0 0.00 0.00 0.00 83
20260506071213 59 226 1.0 2.0 0.00 0.00 0.00 84
20260506070713 59 216 0.0 1.0 0.00 0.00 0.00 84
20260506070213 58 272 0.0 0.0 0.00 0.00 0.00 85
20260506062210 58 292 2.0 2.0 0.00 0.00 0.00 89
20260506061710 58 174 0.0 0.0 0.00 0.00 0.00 89
20260506061210 57 174 0.0 0.0 0.00 0.00 0.00 90
20260506060709 57 174 0.0 0.0 0.00 0.00 0.00 90
20260506060209 57 174 0.0 0.0 0.00 0.00 0.00 91
20260506051206 56 253 0.0 0.0 0.00 0.00 0.00 93
20260506050706 56 253 0.0 0.0 0.00 0.00 0.00 94
20260506050205 56 253 0.0 0.0 0.00 0.00 0.00 94
20260506044705 56 253 0.0 0.0 0.00 0.00 0.00 95
20260506044204 56 253 0.0 0.0 0.00 0.00 0.00 95
20260506043704 56 253 0.0 0.0 0.00 0.00 0.00 95
20260506043204 56 253 0.0 0.0 0.00 0.00 0.00 95
20260506042703 56 253 0.0 0.0 0.00 0.00 0.00 95
20260506042203 56 253 0.0 0.0 0.00 0.00 0.00 95
20260506041703 56 253 0.0 0.0 0.00 0.00 0.00 95
20260506041202 56 253 0.0 0.0 0.00 0.00 0.00 95
20260506040702 56 253 0.0 0.0 0.00 0.00 0.00 95
20260506040202 56 253 0.0 0.0 0.00 0.00 0.00 95
20260506035702 55 253 0.0 0.0 0.00 0.00 0.00 95
20260506035201 56 253 0.0 0.0 0.00 0.00 0.00 95
20260506034701 56 253 0.0 0.0 0.00 0.00 0.00 95
20260506034201 55 253 0.0 0.0 0.00 0.00 0.00 95
20260506033700 55 253 0.0 0.0 0.00 0.00 0.00 95
20260506033200 56 253 0.0 0.0 0.00 0.00 0.00 95
20260506032700 56 253 0.0 0.0 0.00 0.00 0.00 95
20260506032200 56 253 0.0 0.0 0.00 0.00 0.00 95
20260506031659 56 253 0.0 0.0 0.00 0.00 0.00 95
20260506031159 56 253 0.0 0.0 0.00 0.00 0.00 95
20260506030659 56 253 0.0 0.0 0.00 0.00 0.00 95
20260506030158 56 253 0.0 0.0 0.00 0.00 0.00 95
20260506025658 56 253 0.0 0.0 0.00 0.00 0.00 94
20260506025158 56 253 0.0 0.0 0.00 0.00 0.00 94
20260506024657 56 253 0.0 0.0 0.00 0.00 0.00 93
20260506024157 56 253 0.0 0.0 0.00 0.00 0.00 93
20260506023657 56 253 0.0 0.0 0.00 0.00 0.00 93
20260506023157 56 253 0.0 0.0 0.00 0.00 0.00 94
20260506022656 56 253 0.0 0.0 0.00 0.00 0.00 94
20260506022156 56 253 0.0 0.0 0.00 0.00 0.00 94
20260506021656 57 253 0.0 0.0 0.00 0.00 0.00 94
20260506021155 56 253 0.0 0.0 0.00 0.00 0.00 94
20260506020655 56 253 0.0 0.0 0.00 0.00 0.00 95
20260506020155 56 253 0.0 0.0 0.00 0.00 0.00 95
20260506015655 56 253 0.0 0.0 0.00 0.00 0.00 95
20260506015154 56 253 0.0 0.0 0.00 0.00 0.00 95
20260506014654 56 253 0.0 0.0 0.00 0.00 0.00 95
20260506014154 56 253 0.0 0.0 0.00 0.00 0.00 95
20260506013653 56 253 0.0 0.0 0.00 0.00 0.00 95
20260506013153 56 253 0.0 0.0 0.00 0.00 0.00 95
20260506012653 56 253 0.0 0.0 0.00 0.00 0.00 94
20260506012153 57 253 0.0 0.0 0.00 0.00 0.00 94
20260506011652 56 253 0.0 0.0 0.00 0.00 0.00 94
20260506011152 56 253 0.0 2.0 0.00 0.00 0.00 94
20260506010652 57 223 0.0 3.0 0.00 0.00 0.00 93
20260506010151 57 264 3.0 3.0 0.00 0.00 0.00 93
20260506005651 57 202 0.0 2.0 0.00 0.00 0.00 93
20260506005151 57 220 0.0 0.0 0.00 0.00 0.00 94
20260506004150 57 220 0.0 3.0 0.00 0.00 0.00 94
20260506003650 57 202 0.0 0.0 0.00 0.00 0.00 94
20260506003150 57 202 0.0 3.0 0.00 0.00 0.00 94
20260506002649 58 180 0.0 0.0 0.00 0.00 0.00 94
20260506002149 58 180 0.0 0.0 0.00 0.00 0.00 95
20260506001649 58 180 0.0 0.0 0.00 0.00 0.00 95
20260506001148 58 180 0.0 3.0 0.00 0.00 0.00 95
20260506000648 58 248 0.0 4.0 0.00 0.00 0.00 95
20260506000148 58 219 0.0 2.0 0.00 0.00 0.00 95
20260505235648 58 253 0.0 3.0 0.00 0.00 0.00 95
20260505235147 58 230 0.0 0.0 0.00 0.00 0.00 95
20260505234647 58 230 0.0 0.0 0.00 0.00 0.00 95